Weather History for KI35 - January, 2013

Change the Weather History Date:

Thursday, January 24, 2013

  Actual Average (KLOZ) Record (KLOZ)
Temperature  
Mean Temperature 30 °F 36 °F  
Max Temperature 39 °F 45 °F 74 °F (1972)
Min Temperature 21 °F 26 °F -18 °F (1963)
Degree Days  
Heating Degree Days 35 29  
Month to date heating degree days 713  
Since 1 July heating degree days 2365  
Cooling Degree Days 0 0  
Month to date cooling degree days 0  
Year to date cooling degree days 0  
Moisture  
Dew Point 7 °F    
Average Humidity 43    
Maximum Humidity 65    
Minimum Humidity 23    
Precipitation  
Precipitation 0.00 in 0.12 in 2.46 in (2010)
Month to date precipitation 2.73  
Year to date precipitation 2.73  
Sea Level Pressure  
Sea Level Pressure 30.30 in    
Wind  
Wind Speed 9 mph (North)    
Max Wind Speed 25 mph    
Max Gust Speed 32 mph    
Visibility 10 miles    
Events      
T = Trace of Precipitation, MM = Missing Value Source: NWS Daily Summary

Daily Weather History Graph

Daily Weather History Graph

Search for Another Location

Airport or City:

Trip Planner

Search our weather history database for the weather conditions in past years. The results will help you decide how hot, cold, wet, or windy it might be!

Date:

Astronomy

Jan. 24, 2013 Rise Set
Actual Time 7:41 AM EST 5:50 PM EST
Civil Twilight 7:13 AM EST 6:18 PM EST
Nautical Twilight 6:42 AM EST 6:49 PM EST
Astronomical Twilight 6:11 AM EST 7:20 PM EST
Moon 3:52 PM EST (1/24) 5:37 AM EST (1/24)
Length of Visible Light 11h 04m
Length of Day
10h 09m
Waxing Gibbous, 94% of the Moon is Illuminated
Jan 24
Waxing Gibbous
Jan 26
Full
Feb 3
Last Quarter
Feb 10
New
Feb 17
First Quarter

Hourly Weather History & Observations

Time (EST) Temp. Windchill Dew Point Humidity Pressure Visibility Wind Dir Wind Speed Gust Speed Precip Events Conditions
12:15 AM 35.6 °F 29.9 °F 23.0 °F 60% 30.06 in 10.0 mi WSW 6.9 mph - N/A   Overcast
12:35 AM 37.4 °F 29.8 °F 26.6 °F 65% 30.06 in 10.0 mi West 11.5 mph 21.9 mph N/A   Overcast
12:55 AM 39.2 °F 32.0 °F 28.4 °F 65% 30.06 in 10.0 mi West 11.5 mph 26.5 mph N/A   Overcast
1:15 AM 37.4 °F 25.9 °F 26.6 °F 65% 30.06 in 10.0 mi West 25.3 mph 32.2 mph N/A   Overcast
1:35 AM 37.4 °F 27.2 °F 24.8 °F 60% 30.08 in 10.0 mi West 19.6 mph 25.3 mph N/A   Scattered Clouds
1:55 AM 35.6 °F 28.6 °F 23.0 °F 60% 30.09 in 10.0 mi WNW 9.2 mph 17.3 mph N/A   Scattered Clouds
2:15 AM 35.6 °F 26.6 °F 23.0 °F 60% 30.09 in 10.0 mi WNW 13.8 mph 26.5 mph N/A   Scattered Clouds
2:35 AM 33.8 °F 25.8 °F 23.0 °F 65% 30.11 in 10.0 mi West 10.4 mph 18.4 mph N/A   Mostly Cloudy
2:55 AM 33.8 °F 26.4 °F 23.0 °F 65% 30.12 in 10.0 mi WNW 9.2 mph 17.3 mph N/A   Scattered Clouds
3:15 AM 33.8 °F 23.5 °F 21.2 °F 60% 30.12 in 10.0 mi WNW 16.1 mph 19.6 mph N/A   Scattered Clouds
3:35 AM 32.0 °F 22.1 °F 21.2 °F 64% 30.14 in 10.0 mi NW 13.8 mph 21.9 mph N/A   Scattered Clouds
3:55 AM 32.0 °F 21.2 °F 19.4 °F 60% 30.15 in 10.0 mi WNW 16.1 mph 21.9 mph N/A   Clear
4:15 AM 32.0 °F 21.2 °F 19.4 °F 60% 30.16 in 10.0 mi WNW 16.1 mph 23.0 mph N/A   Clear
4:35 AM 32.0 °F 23.6 °F 19.4 °F 60% 30.16 in 10.0 mi NW 10.4 mph 23.0 mph N/A   Clear
4:55 AM 30.2 °F 25.4 °F 19.4 °F 64% 30.16 in 10.0 mi West 4.6 mph 17.3 mph N/A   Scattered Clouds
5:15 AM 30.2 °F 21.3 °F 19.4 °F 64% 30.17 in 10.0 mi West 10.4 mph 19.6 mph N/A   Mostly Cloudy
5:35 AM 30.2 °F 17.8 °F 17.6 °F 60% 30.18 in 10.0 mi WNW 19.6 mph 25.3 mph N/A   Scattered Clouds
5:55 AM 30.2 °F 20.2 °F 17.6 °F 60% 30.20 in 10.0 mi WNW 12.7 mph 20.7 mph N/A   Scattered Clouds
6:15 AM 30.2 °F 24.3 °F 17.6 °F 60% 30.21 in 10.0 mi WNW 5.8 mph 19.6 mph N/A   Mostly Cloudy
6:35 AM 28.4 °F 19.1 °F 17.6 °F 64% 30.23 in 10.0 mi NW 10.4 mph 19.6 mph N/A   Overcast
6:55 AM 28.4 °F 18.5 °F 15.8 °F 59% 30.24 in 10.0 mi NNW 11.5 mph 19.6 mph N/A   Mostly Cloudy
7:15 AM 26.6 °F 20.0 °F 15.8 °F 64% 30.26 in 10.0 mi NNW 5.8 mph - N/A   Overcast
7:35 AM 26.6 °F 16.8 °F 14.0 °F 59% 30.28 in 10.0 mi NW 10.4 mph 20.7 mph N/A   Mostly Cloudy
7:55 AM 26.6 °F 15.7 °F 14.0 °F 59% 30.29 in 10.0 mi NNW 12.7 mph 21.9 mph N/A   Overcast
8:15 AM 23.0 °F 13.9 °F 12.2 °F 63% 30.31 in 10.0 mi NNW 8.1 mph - N/A   Scattered Clouds
8:35 AM 23.0 °F 11.7 °F 10.4 °F 59% 30.33 in 10.0 mi North 11.5 mph 18.4 mph N/A   Clear
8:55 AM 23.0 °F 14.7 °F 6.8 °F 50% 30.34 in 10.0 mi NNW 6.9 mph 19.6 mph N/A   Clear
9:15 AM 23.0 °F - 5.0 °F 46% 30.36 in 10.0 mi Calm Calm - N/A   Clear
9:35 AM 24.8 °F 17.9 °F 6.8 °F 46% 30.37 in 10.0 mi NE 5.8 mph - N/A   Scattered Clouds
9:55 AM 24.8 °F 13.4 °F 3.2 °F 40% 30.37 in 10.0 mi NNE 12.7 mph 23.0 mph N/A   Scattered Clouds
10:15 AM 26.6 °F 16.2 °F 3.2 °F 37% 30.39 in 10.0 mi NNE 11.5 mph 18.4 mph N/A   Clear
10:35 AM 26.6 °F 18.2 °F 3.2 °F 37% 30.39 in 10.0 mi NE 8.1 mph 17.3 mph N/A   Clear
10:55 AM 26.6 °F 16.2 °F 1.4 °F 34% 30.40 in 10.0 mi NE 11.5 mph 19.6 mph N/A   Clear
11:15 AM 26.6 °F 18.2 °F 5.0 °F 40% 30.42 in 10.0 mi ENE 8.1 mph - N/A   Clear
11:35 AM 26.6 °F 18.2 °F 3.2 °F 37% 30.41 in 10.0 mi North 8.1 mph 21.9 mph N/A   Clear
11:55 AM 26.6 °F 20.0 °F 1.4 °F 34% 30.42 in 10.0 mi North 5.8 mph 18.4 mph N/A   Clear
12:15 PM 26.6 °F 21.2 °F 1.4 °F 34% 30.41 in 10.0 mi NE 4.6 mph - N/A   Clear
12:35 PM 28.4 °F 21.2 °F 1.4 °F 31% 30.40 in 10.0 mi North 6.9 mph - N/A   Clear
12:55 PM 30.2 °F 22.6 °F -2.2 °F 25% 30.40 in 10.0 mi WNW 8.1 mph - N/A   Clear
1:15 PM 30.2 °F 21.3 °F -2.2 °F 25% 30.39 in 10.0 mi NW 10.4 mph 17.3 mph N/A   Clear
1:35 PM 30.2 °F - -4.0 °F 23% 30.39 in 10.0 mi Calm Calm - N/A   Clear
1:55 PM 28.4 °F 23.3 °F -4.0 °F 25% 30.38 in 10.0 mi East 4.6 mph - N/A   Clear
2:35 PM 30.2 °F 23.4 °F -4.0 °F 23% 30.38 in 10.0 mi North 6.9 mph 16.1 mph N/A   Clear
2:55 PM 28.4 °F 19.7 °F -4.0 °F 25% 30.38 in 10.0 mi NNW 9.2 mph - N/A   Clear
3:15 PM 28.4 °F 21.2 °F -4.0 °F 25% 30.39 in 10.0 mi NE 6.9 mph - N/A   Clear
3:35 PM 28.4 °F 23.3 °F -4.0 °F 25% 30.39 in 10.0 mi NNE 4.6 mph - N/A   Clear
3:55 PM 30.2 °F 22.6 °F -2.2 °F 25% 30.39 in 10.0 mi North 8.1 mph - N/A   Clear
4:15 PM 30.2 °F 23.4 °F -4.0 °F 23% 30.39 in 10.0 mi NE 6.9 mph - N/A   Clear
4:35 PM 28.4 °F 21.2 °F -4.0 °F 25% 30.38 in 10.0 mi NE 6.9 mph - N/A   Clear
4:55 PM 28.4 °F 24.6 °F -4.0 °F 25% 30.40 in 10.0 mi NE 3.5 mph - N/A   Clear
5:15 PM 28.4 °F 24.6 °F -4.0 °F 25% 30.39 in 10.0 mi ENE 3.5 mph - N/A   Clear
5:35 PM 28.4 °F - -4.0 °F 25% 30.39 in 10.0 mi Calm Calm - N/A   Clear
5:55 PM 26.6 °F 20.0 °F -5.8 °F 24% 30.40 in 10.0 mi NE 5.8 mph - N/A   Clear
6:15 PM 26.6 °F - -4.0 °F 26% 30.41 in 10.0 mi Calm Calm - N/A   Clear
6:35 PM 26.6 °F 21.2 °F -4.0 °F 26% 30.41 in 10.0 mi NNE 4.6 mph - N/A   Clear
6:55 PM 26.6 °F 22.6 °F -4.0 °F 26% 30.41 in 10.0 mi NNE 3.5 mph - N/A   Clear
7:15 PM 24.8 °F - -4.0 °F 28% 30.42 in 10.0 mi Calm Calm - N/A   Clear
7:35 PM 24.8 °F 20.5 °F -2.2 °F 31% 30.41 in 10.0 mi East 3.5 mph - N/A   Clear
7:55 PM 24.8 °F 20.5 °F -0.4 °F 34% 30.40 in 10.0 mi East 3.5 mph - N/A   Clear
8:15 PM 24.8 °F 19.1 °F -0.4 °F 34% 30.40 in 10.0 mi ENE 4.6 mph - N/A   Clear
8:35 PM 23.0 °F 15.8 °F -0.4 °F 36% 30.38 in 10.0 mi ENE 5.8 mph - N/A   Clear
8:55 PM 23.0 °F 18.4 °F -0.4 °F 36% 30.38 in 10.0 mi East 3.5 mph - N/A   Clear
9:15 PM 23.0 °F 14.7 °F 1.4 °F 39% 30.38 in 10.0 mi East 6.9 mph - N/A   Clear
9:35 PM 23.0 °F 15.8 °F -0.4 °F 36% 30.37 in 10.0 mi East 5.8 mph - N/A   Clear
9:55 PM 23.0 °F 18.4 °F -0.4 °F 36% 30.37 in 10.0 mi ENE 3.5 mph - N/A   Clear
10:15 PM 23.0 °F 15.8 °F 1.4 °F 39% 30.35 in 10.0 mi East 5.8 mph - N/A   Clear
10:35 PM 23.0 °F 15.8 °F 1.4 °F 39% 30.35 in 10.0 mi East 5.8 mph - N/A   Clear
10:55 PM 23.0 °F 15.8 °F 1.4 °F 39% 30.35 in 10.0 mi ENE 5.8 mph - N/A   Clear
11:15 PM 21.2 °F 13.6 °F 3.2 °F 46% 30.34 in 10.0 mi ENE 5.8 mph - N/A   Clear
11:35 PM 21.2 °F - 3.2 °F 46% 30.35 in 10.0 mi Calm Calm - N/A   Clear
11:55 PM 21.2 °F 16.4 °F 3.2 °F 46% 30.33 in 10.0 mi East 3.5 mph - N/A   Clear